Weather History for Canby, MN

Change the Weather History Date:

Thursday, October 4, 2012

  Actual Average (KMML) Record (KMML)
Temperature  
Mean Temperature 44 °F -  
Max Temperature 48 °F 65 °F 87 °F (1987)
Min Temperature 38 °F 40 °F 23 °F (1988)
Degree Days  
Heating Degree Days 20    
Moisture  
Dew Point 33 °F    
Average Humidity 66    
Maximum Humidity 81    
Minimum Humidity 52    
Precipitation  
Precipitation 0.00 in - - ()
Sea Level Pressure  
Sea Level Pressure 30.10 in    
Wind  
Wind Speed 25 mph (WNW)    
Max Wind Speed 32 mph    
Max Gust Speed 41 mph    
Visibility 10 miles    
Events      
Averages and records for this station are not official NWS values.
T = Trace of Precipitation, MM = Missing Value Source: NWS Daily Summary

Daily Weather History Graph

Daily Weather History Graph

Search for Another Location

Airport:

Trip Planner

Search our weather history database for the weather conditions in past years. The results will help you decide how hot, cold, wet, or windy it might be!

Date:

Astronomy

Oct. 04, 2012 Rise Set
Actual Time 7:27 AM CDT 6:59 PM CDT
Civil Twilight 6:58 AM CDT 7:28 PM CDT
Nautical Twilight 6:24 AM CDT 8:02 PM CDT
Astronomical Twilight 5:50 AM CDT 8:36 PM CDT
Moon 9:24 PM CDT (10/4) 11:56 AM CDT (10/4)
Length of Visible Light 12h 30m
Length of Day
11h 31m
Waning Gibbous, 82% of the Moon is Illuminated
Oct 4
Waning Gibbous
Oct 8
Last Quarter
Oct 15
New
Oct 21
First Quarter
Oct 29
Full

Hourly Weather History & Observations

Time (CDT) Temp. Windchill Dew Point Humidity Pressure Visibility Wind Dir Wind Speed Gust Speed Precip Events Conditions
12:14 AM 50.5 °F - 40.3 °F 68% 29.75 in 10.0 mi WNW 21.9 mph 27.6 mph N/A   Clear
12:35 AM 48.6 °F - 40.6 °F 74% 29.79 in 10.0 mi WNW 21.9 mph 31.1 mph N/A   Clear
12:54 AM 47.8 °F - 40.8 °F 77% 29.81 in 10.0 mi West 26.5 mph 32.2 mph N/A   Scattered Clouds
1:14 AM 48.4 °F - 41.0 °F 76% 29.82 in 10.0 mi WNW 27.6 mph 34.5 mph N/A   Overcast
1:35 AM 47.8 °F - 40.5 °F 76% 29.85 in 10.0 mi West 26.5 mph 38.0 mph N/A   Overcast
1:54 AM 46.4 °F 36.9 °F 39.9 °F 78% 29.87 in 10.0 mi West 32.2 mph 41.4 mph N/A   Overcast
2:14 AM 45.7 °F 36.0 °F 39.6 °F 79% 29.88 in 10.0 mi West 31.1 mph 39.1 mph N/A   Overcast
2:35 AM 45.3 °F 36.1 °F 39.4 °F 80% 29.88 in 10.0 mi West 27.6 mph 35.7 mph N/A   Overcast
2:54 AM 45.0 °F 34.9 °F 39.4 °F 81% 29.89 in 10.0 mi West 32.2 mph 39.1 mph N/A   Overcast
3:14 AM 44.6 °F 35.5 °F 39.2 °F 81% 29.91 in 10.0 mi West 25.3 mph 33.4 mph N/A   Overcast
3:35 AM 44.1 °F 34.6 °F 38.5 °F 81% 29.93 in 10.0 mi West 26.5 mph 33.4 mph N/A   Overcast
3:54 AM 44.1 °F 34.2 °F 37.4 °F 77% 29.92 in 10.0 mi West 28.8 mph 36.8 mph N/A   Overcast
4:14 AM 42.4 °F 32.2 °F 35.6 °F 77% 29.94 in 10.0 mi West 27.6 mph 39.1 mph N/A   Overcast
4:34 AM 40.3 °F 29.7 °F 34.2 °F 79% 29.96 in 10.0 mi West 25.3 mph 38.0 mph N/A   Overcast
4:54 AM 39.4 °F 28.5 °F 33.8 °F 80% 29.96 in 10.0 mi West 25.3 mph 39.1 mph N/A   Scattered Clouds
5:14 AM 39.6 °F 29.7 °F 33.8 °F 80% 29.97 in 10.0 mi WNW 20.7 mph 38.0 mph N/A   Clear
5:34 AM 39.6 °F 29.7 °F 34.0 °F 80% 29.98 in 10.0 mi WNW 20.7 mph 29.9 mph N/A   Clear
5:54 AM 39.9 °F 29.2 °F 33.6 °F 78% 29.99 in 10.0 mi West 25.3 mph 33.4 mph N/A   Clear
6:14 AM 40.1 °F 30.5 °F 34.5 °F 80% 30.00 in 10.0 mi West 20.7 mph 27.6 mph N/A   Mostly Cloudy
6:34 AM 40.6 °F 30.0 °F 34.2 °F 78% 30.02 in 10.0 mi WNW 26.5 mph 40.3 mph N/A   Overcast
6:54 AM 40.5 °F 29.5 °F 34.0 °F 78% 30.03 in 10.0 mi WNW 27.6 mph 38.0 mph N/A   Overcast
7:15 AM 39.9 °F 28.4 °F 33.8 °F 79% 30.04 in 10.0 mi WNW 29.9 mph 36.8 mph N/A   Overcast
7:34 AM 40.1 °F 29.7 °F 33.8 °F 78% 30.05 in 10.0 mi WNW 24.2 mph 35.7 mph N/A   Overcast
7:54 AM 39.9 °F 29.2 °F 33.1 °F 77% 30.05 in 10.0 mi WNW 25.3 mph 39.1 mph N/A   Overcast
8:14 AM 40.1 °F 28.8 °F 32.4 °F 74% 30.07 in 10.0 mi WNW 28.8 mph 36.8 mph N/A   Overcast
8:34 AM 40.6 °F 30.0 °F 32.5 °F 73% 30.08 in 10.0 mi WNW 26.5 mph 36.8 mph N/A   Overcast
8:54 AM 40.6 °F 29.6 °F 32.9 °F 74% 30.09 in 10.0 mi WNW 28.8 mph 39.1 mph N/A   Overcast
9:14 AM 40.8 °F 30.7 °F 33.1 °F 74% 30.09 in 10.0 mi WNW 24.2 mph 40.3 mph N/A   Overcast
9:34 AM 41.7 °F 30.8 °F 32.9 °F 71% 30.10 in 10.0 mi WNW 29.9 mph 39.1 mph N/A   Overcast
9:54 AM 41.5 °F 31.2 °F 32.5 °F 70% 30.11 in 10.0 mi WNW 26.5 mph 38.0 mph N/A   Overcast
10:15 AM 42.4 °F 32.4 °F 31.8 °F 66% 30.12 in 10.0 mi WNW 26.5 mph 41.4 mph N/A   Overcast
10:35 AM 43.0 °F 32.5 °F 31.6 °F 64% 30.13 in 10.0 mi WNW 29.9 mph 38.0 mph N/A   Overcast
10:55 AM 43.5 °F 33.8 °F 32.0 °F 64% 30.14 in 10.0 mi WNW 26.5 mph 38.0 mph N/A   Overcast
11:14 AM 43.9 °F 34.3 °F 31.6 °F 62% 30.14 in 10.0 mi WNW 26.5 mph 36.8 mph N/A   Overcast
11:34 AM 43.9 °F 33.9 °F 32.0 °F 63% 30.15 in 10.0 mi WNW 28.8 mph 39.1 mph N/A   Overcast
11:55 AM 44.6 °F 35.7 °F 32.0 °F 61% 30.15 in 10.0 mi WNW 24.2 mph 35.7 mph N/A   Overcast
12:14 PM 45.0 °F 36.2 °F 31.1 °F 58% 30.15 in 10.0 mi WNW 24.2 mph 38.0 mph N/A   Overcast
12:34 PM 44.8 °F 35.5 °F 32.0 °F 61% 30.17 in 10.0 mi WNW 26.5 mph 36.8 mph N/A   Overcast
12:55 PM 45.5 °F 36.5 °F 31.3 °F 58% 30.16 in 10.0 mi WNW 26.5 mph 34.5 mph N/A   Overcast
1:34 PM 45.7 °F 37.4 °F 31.3 °F 57% 30.18 in 10.0 mi WNW 23.0 mph 41.4 mph N/A   Overcast
1:54 PM 45.9 °F 37.2 °F 32.0 °F 58% 30.17 in 10.0 mi WNW 25.3 mph 39.1 mph N/A   Overcast
2:14 PM 46.4 °F 36.9 °F 31.1 °F 55% 30.18 in 10.0 mi WNW 32.2 mph 38.0 mph N/A   Overcast
2:34 PM 46.0 °F 37.2 °F 31.1 °F 56% 30.19 in 10.0 mi WNW 26.5 mph 38.0 mph N/A   Overcast
2:55 PM 46.0 °F 37.8 °F 31.3 °F 56% 30.19 in 10.0 mi WNW 23.0 mph 35.7 mph N/A   Overcast
3:14 PM 46.8 °F - 31.1 °F 55% 30.19 in 10.0 mi WNW 25.3 mph 32.2 mph N/A   Overcast
3:34 PM 46.2 °F 38.7 °F 31.5 °F 56% 30.20 in 10.0 mi WNW 19.6 mph 34.5 mph N/A   Overcast
3:54 PM 45.9 °F 37.2 °F 30.6 °F 55% 30.20 in 10.0 mi WNW 25.3 mph 35.7 mph N/A   Overcast
4:14 PM 47.1 °F - 30.2 °F 52% 30.20 in 10.0 mi WNW 25.3 mph 35.7 mph N/A   Overcast
4:34 PM 46.2 °F 38.1 °F 30.6 °F 54% 30.20 in 10.0 mi WNW 23.0 mph 33.4 mph N/A   Overcast
4:54 PM 45.9 °F 38.3 °F 30.2 °F 54% 30.20 in 10.0 mi WNW 19.6 mph 28.8 mph N/A   Overcast
5:15 PM 45.5 °F 37.3 °F 30.7 °F 56% 30.21 in 10.0 mi WNW 21.9 mph 32.2 mph N/A   Overcast
5:35 PM 45.1 °F 36.6 °F 30.7 °F 57% 30.21 in 10.0 mi WNW 23.0 mph 32.2 mph N/A   Overcast
5:54 PM 45.1 °F 36.4 °F 30.2 °F 56% 30.22 in 10.0 mi WNW 24.2 mph 29.9 mph N/A   Overcast
6:14 PM 44.8 °F 35.9 °F 29.8 °F 56% 30.22 in 10.0 mi WNW 24.2 mph 32.2 mph N/A   Overcast
6:35 PM 44.6 °F 36.1 °F 30.0 °F 57% 30.23 in 10.0 mi WNW 21.9 mph 27.6 mph N/A   Overcast
6:54 PM 44.1 °F 35.9 °F 30.4 °F 59% 30.23 in 10.0 mi WNW 19.6 mph 29.9 mph N/A   Overcast
7:14 PM 43.9 °F 35.7 °F 30.6 °F 59% 30.23 in 10.0 mi WNW 19.6 mph 25.3 mph N/A   Overcast
7:34 PM 43.9 °F 35.9 °F 30.7 °F 60% 30.24 in 10.0 mi WNW 18.4 mph 25.3 mph N/A   Overcast
7:54 PM 43.9 °F 35.7 °F 30.0 °F 58% 30.24 in 10.0 mi WNW 19.6 mph 25.3 mph N/A   Overcast
9:14 PM 43.9 °F 37.2 °F 29.3 °F 57% 30.25 in 10.0 mi WNW 13.8 mph 20.7 mph N/A   Overcast
9:35 PM 43.9 °F 35.7 °F 29.5 °F 57% 30.25 in 10.0 mi WNW 19.6 mph 24.2 mph N/A   Overcast
9:54 PM 43.7 °F 36.3 °F 29.8 °F 58% 30.26 in 10.0 mi WNW 16.1 mph 20.7 mph N/A   Overcast
10:14 PM 43.7 °F 36.0 °F 29.1 °F 57% 30.26 in 10.0 mi WNW 17.3 mph 27.6 mph N/A   Overcast
10:34 PM 43.3 °F 35.2 °F 28.4 °F 56% 30.26 in 10.0 mi WNW 18.4 mph 21.9 mph N/A   Overcast
10:55 PM 43.3 °F 34.5 °F 27.1 °F 53% 30.26 in 10.0 mi WNW 21.9 mph 27.6 mph N/A   Overcast
11:14 PM 41.7 °F 34.1 °F 26.4 °F 55% 30.26 in 10.0 mi WNW 15.0 mph 20.7 mph N/A   Scattered Clouds
11:34 PM 39.6 °F 31.7 °F 26.4 °F 59% 30.26 in 10.0 mi WNW 13.8 mph - N/A   Clear
11:55 PM 38.5 °F 30.3 °F 26.6 °F 62% 30.26 in 10.0 mi West 13.8 mph - N/A   Clear